Location: Newark
(43.7333°N, 7.4000°E)
Time: 23:03:07
(UTC+00:00)

Envisat - Pass Details

Date: 21 September 2020
Orbit: 764 x 766 km, 98.1° (Epoch: 29 October)

Event Time Altitude Azimuth Distance (km) Brightness Sun altitude
Rises 04:18:01 0° 31° (NNE) 3,239 6.9 -11.4°
Reaches altitude 10° 04:21:19 10° 53° (NE) 2,306 6.6 -10.8°
Maximum altitude 04:24:18 16° 90° (E) 1,942 6.4 -10.2°
Drops below altitude 10° 04:27:16 10° 126° (SE) 2,295 6.1 -9.7°
Sets 04:30:30 0° 148° (SSE) 3,215 6.5 -9.1°
